Location: São Paulo
(23.5507°S, 46.6334°W)
Time: 12:47:32
(UTC-03:00)

X-37B - Pass Details

Date: 10 August 2021
Orbit: 381 x 393 km, 45.0° (Epoch: 29 August)

Event Time Altitude Azimuth Distance (km) Brightness Sun altitude
Rises 19:13:41 0° 245° (WSW) 2,298 5.4 -19.9°
Reaches altitude 10° 19:16:04 10° 261° (W) 1,433 4.5 -20.5°
Maximum altitude 19:18:37 21° 313° (NW) 930 3.1 -21.1°
Enters shadow 19:20:39 13° 359° (N) 1,266 3.2 -21.5°
